Location: Unspecified
(50.7693°N, 0.0000°E)
Time: 04:18:38
(UTC+00:00)

SR - Pass Details

Date: 27 June 2019
Orbit: 580 x 876 km, 66.7° (Epoch: 17 July)

Event Time Altitude Azimuth Distance (km) Brightness Sun altitude
Rises 05:51:00 0° 291° (WNW) 2,839 ? 16.0°
Reaches altitude 10° 05:54:32 10° 321° (NW) 1,979 ? 16.6°
Maximum altitude 05:56:27 12° 347° (NNW) 1,847 ? 16.9°
Drops below altitude 10° 05:58:24 10° 13° (NNE) 2,039 ? 17.2°
Sets 06:02:10 0° 43° (NE) 3,022 ? 17.7°
